DLH779 WIII-EDDF

Flight info

Callsign DLH779
Flight time N/A
Altitude 30000
Route DOLTA A585 GUSKO G579 VJB Y342 AROSO Y513 KALIL Y501 VIH R325 OSVIP/N0504F320 R325 PUT L759 ENTAP DCT IBUDA DCT KKJ/N0501F340 L760 POSIG W10N DPN A589 ASARI L509 TAPIS M875 AMDAR/K0900F340 M875 REBKE DCT MANAT/N0481F360 R226 AKRAM A477 BABUM A909 RODAR M11 REBLO UR317 TBN UW71 CRM UL746 GOKPA/N0483F380 UL746 ODERO DCT OPT DCT DEGET DCT ALAMU DCT TOVKA DCT DITIS DCT RAPET T170 VAGAB/N0434F240 T170 GAPLA T178 KERAX KERAX5A
Aircraft A346/H-SDE2E3FGHIJ3J4J5M1RWXY/LB1D1

Departure

Time N/A
Airport Soekarno-Hatta International Airport (WIII)

Arrival

Time 2026-05-06 11:38
Airport Frankfurt Main Airport (EDDF)
Time Latitude Longitude Altitude Speed Heading
2026-05-06 10:38 48.04894 17.51777 35854 ft 450 kts 295°
2026-05-06 10:38 48.06435 17.47696 35849 ft 449 kts 295°
2026-05-06 10:39 48.09528 17.39489 35842 ft 449 kts 295°
2026-05-06 10:39 48.12596 17.31328 35840 ft 449 kts 295°
2026-05-06 10:40 48.15667 17.23141 35845 ft 451 kts 295°
2026-05-06 10:40 48.18735 17.14926 35841 ft 451 kts 295°
2026-05-06 10:41 48.21798 17.06702 35839 ft 451 kts 295°
2026-05-06 10:41 48.24857 16.98466 35840 ft 451 kts 295°
2026-05-06 10:42 48.27898 16.90212 35848 ft 452 kts 294°
2026-05-06 10:42 48.30879 16.81886 35833 ft 452 kts 294°
2026-05-06 10:43 48.33848 16.73547 35833 ft 452 kts 294°
2026-05-06 10:44 48.38296 16.61029 35834 ft 452 kts 294°
2026-05-06 10:44 48.41265 16.52661 35814 ft 453 kts 293°
2026-05-06 10:45 48.44235 16.44244 35823 ft 453 kts 293°
2026-05-06 10:45 48.47191 16.35840 35809 ft 453 kts 293°
2026-05-06 10:46 48.50140 16.27430 35813 ft 453 kts 293°
2026-05-06 10:46 48.53088 16.19000 35832 ft 454 kts 292°
2026-05-06 10:47 48.56042 16.10531 35812 ft 456 kts 292°
2026-05-06 10:47 48.58992 16.02036 35814 ft 456 kts 292°
2026-05-06 10:48 48.61930 15.93548 35808 ft 456 kts 292°
2026-05-06 10:48 48.64891 15.84968 35816 ft 456 kts 292°
2026-05-06 10:49 48.67828 15.76432 35817 ft 457 kts 292°
2026-05-06 10:49 48.70759 15.67884 35811 ft 457 kts 292°
2026-05-06 10:50 48.73685 15.59321 35806 ft 457 kts 292°
2026-05-06 10:50 48.76603 15.50753 35801 ft 457 kts 292°
2026-05-06 10:51 48.79518 15.42170 35823 ft 457 kts 292°
2026-05-06 10:51 48.82424 15.33582 35802 ft 457 kts 291°
2026-05-06 10:52 48.85323 15.24980 35798 ft 457 kts 291°
2026-05-06 10:52 48.88245 15.16380 35796 ft 458 kts 293°
2026-05-06 10:53 48.91590 15.08084 35802 ft 463 kts 299°
2026-05-06 10:53 48.95391 15.00132 35807 ft 464 kts 301°
2026-05-06 10:54 48.99239 14.92251 35802 ft 464 kts 301°
2026-05-06 10:54 49.03083 14.84346 35805 ft 464 kts 301°
2026-05-06 10:55 49.06922 14.76428 35803 ft 464 kts 301°
2026-05-06 10:55 49.10755 14.68496 35827 ft 464 kts 300°
2026-05-06 10:56 49.14578 14.60560 35811 ft 463 kts 300°
2026-05-06 10:56 49.18394 14.52605 35798 ft 463 kts 300°
2026-05-06 10:57 49.22205 14.44641 35813 ft 463 kts 300°
2026-05-06 10:57 49.26010 14.36666 35797 ft 463 kts 300°
2026-05-06 10:58 49.29812 14.28674 35812 ft 464 kts 300°
2026-05-06 10:58 49.33617 14.20647 35807 ft 465 kts 300°
2026-05-06 10:59 49.37422 14.12604 35804 ft 466 kts 300°
2026-05-06 10:59 49.41250 14.04484 35797 ft 466 kts 300°
2026-05-06 11:00 49.45042 13.96420 35827 ft 465 kts 300°
2026-05-06 11:00 49.48828 13.88339 35801 ft 465 kts 300°
2026-05-06 11:01 49.52613 13.80237 35802 ft 465 kts 300°
2026-05-06 11:01 49.56387 13.72135 35799 ft 465 kts 300°
2026-05-06 11:02 49.60156 13.64019 35800 ft 465 kts 300°
2026-05-06 11:02 49.63921 13.55879 35818 ft 465 kts 300°
2026-05-06 11:03 49.67680 13.47747 35811 ft 465 kts 300°
2026-05-06 11:03 49.71437 13.39589 35812 ft 465 kts 300°
2026-05-06 11:04 49.75183 13.31425 35810 ft 465 kts 300°
2026-05-06 11:04 49.78925 13.23245 35809 ft 465 kts 300°
2026-05-06 11:05 49.82662 13.15047 35807 ft 465 kts 300°
2026-05-06 11:05 49.86394 13.06836 35781 ft 465 kts 300°
2026-05-06 11:06 49.89510 12.99959 35784 ft 465 kts 300°
2026-05-06 11:06 49.93228 12.91733 35804 ft 465 kts 300°
2026-05-06 11:07 49.96951 12.83470 35824 ft 465 kts 300°
2026-05-06 11:07 50.00651 12.75232 35799 ft 465 kts 299°
2026-05-06 11:08 50.04353 12.66960 35797 ft 465 kts 299°
2026-05-06 11:08 50.08047 12.58682 35792 ft 465 kts 299°
2026-05-06 11:09 50.11735 12.50391 35780 ft 465 kts 299°
2026-05-06 11:09 50.15389 12.42073 35785 ft 465 kts 297°
2026-05-06 11:10 50.18609 12.33368 35767 ft 461 kts 291°
2026-05-06 11:10 50.21222 12.24267 35765 ft 457 kts 286°
2026-05-06 11:11 50.23404 12.14938 35779 ft 456 kts 284°
2026-05-06 11:11 50.25543 12.05593 35790 ft 457 kts 284°
2026-05-06 11:12 50.27696 11.96195 35775 ft 460 kts 285°
2026-05-06 11:12 50.28781 11.91476 35374 ft 460 kts 284°
2026-05-06 11:12 50.29862 11.86777 34850 ft 457 kts 284°
2026-05-06 11:12 50.30934 11.82100 34323 ft 455 kts 284°
2026-05-06 11:13 50.31998 11.77445 33782 ft 453 kts 283°
2026-05-06 11:13 50.33053 11.72808 33168 ft 450 kts 283°
2026-05-06 11:13 50.34098 11.68202 32591 ft 447 kts 283°
2026-05-06 11:13 50.35137 11.63612 32042 ft 445 kts 283°
2026-05-06 11:14 50.36168 11.59034 31503 ft 447 kts 283°
2026-05-06 11:14 50.37204 11.54419 30842 ft 448 kts 283°
2026-05-06 11:14 50.38245 11.49790 30111 ft 451 kts 283°
2026-05-06 11:14 50.39286 11.45146 29326 ft 452 kts 283°
2026-05-06 11:15 50.40326 11.40491 28548 ft 452 kts 283°
2026-05-06 11:15 50.41156 11.35767 27809 ft 445 kts 276°
2026-05-06 11:15 50.41556 11.31003 27370 ft 435 kts 269°
2026-05-06 11:15 50.41567 11.26292 26805 ft 428 kts 262°
2026-05-06 11:16 50.41242 11.21686 26285 ft 422 kts 259°
2026-05-06 11:16 50.40839 11.17137 25760 ft 419 kts 258°
2026-05-06 11:16 50.40422 11.12624 25184 ft 418 kts 259°
2026-05-06 11:16 50.39995 11.08046 24550 ft 418 kts 259°
2026-05-06 11:17 50.39575 11.03540 23962 ft 417 kts 259°
2026-05-06 11:17 50.39157 10.99052 23439 ft 415 kts 259°
2026-05-06 11:17 50.38741 10.94587 22865 ft 412 kts 259°
2026-05-06 11:17 50.38330 10.90164 22352 ft 407 kts 259°
2026-05-06 11:18 50.37922 10.85797 21882 ft 402 kts 259°
2026-05-06 11:18 50.37516 10.81482 21427 ft 398 kts 259°
2026-05-06 11:18 50.37111 10.77209 20978 ft 394 kts 259°
2026-05-06 11:18 50.36710 10.72983 20540 ft 390 kts 259°
2026-05-06 11:19 50.36312 10.68800 20097 ft 387 kts 259°
2026-05-06 11:19 50.35914 10.64629 19655 ft 385 kts 259°
2026-05-06 11:19 50.35516 10.60487 19186 ft 384 kts 259°
2026-05-06 11:19 50.35118 10.56359 18724 ft 382 kts 259°
2026-05-06 11:20 50.34719 10.52247 18272 ft 381 kts 259°
2026-05-06 11:20 50.34321 10.48151 17783 ft 379 kts 259°
2026-05-06 11:20 50.33923 10.44079 17327 ft 376 kts 259°
2026-05-06 11:20 50.33528 10.40043 16909 ft 373 kts 259°
2026-05-06 11:21 50.33136 10.36043 16500 ft 369 kts 259°
2026-05-06 11:21 50.32746 10.32084 16100 ft 366 kts 259°
2026-05-06 11:21 50.32356 10.28150 15707 ft 363 kts 259°
2026-05-06 11:21 50.31970 10.24260 15305 ft 360 kts 259°
2026-05-06 11:22 50.31584 10.20387 14926 ft 358 kts 259°
2026-05-06 11:22 50.31199 10.16549 14530 ft 356 kts 259°
2026-05-06 11:22 50.30812 10.12716 14110 ft 355 kts 259°
2026-05-06 11:22 50.30428 10.08898 13690 ft 354 kts 259°
2026-05-06 11:23 50.30043 10.05094 13252 ft 352 kts 259°
2026-05-06 11:23 50.29662 10.01319 12840 ft 350 kts 259°
2026-05-06 11:23 50.29282 9.97584 12433 ft 347 kts 259°
2026-05-06 11:23 50.28903 9.93867 12039 ft 344 kts 259°
2026-05-06 11:24 50.28526 9.90183 11634 ft 342 kts 259°
2026-05-06 11:24 50.28151 9.86524 11251 ft 339 kts 259°
2026-05-06 11:24 50.27777 9.82901 10864 ft 336 kts 259°
2026-05-06 11:24 50.27406 9.79311 10570 ft 329 kts 259°
2026-05-06 11:25 50.27050 9.75863 10479 ft 314 kts 259°
2026-05-06 11:25 50.26703 9.72517 10368 ft 301 kts 259°
2026-05-06 11:25 50.26374 9.69350 10259 ft 289 kts 258°
2026-05-06 11:25 50.26054 9.66307 10124 ft 278 kts 259°
2026-05-06 11:26 50.25772 9.63613 10029 ft 268 kts 258°
2026-05-06 11:26 50.25476 9.60794 9944 ft 259 kts 258°
2026-05-06 11:26 50.25185 9.58035 9853 ft 255 kts 258°
2026-05-06 11:26 50.24896 9.55309 9781 ft 253 kts 258°
2026-05-06 11:27 50.24607 9.52592 9562 ft 253 kts 258°
2026-05-06 11:27 50.24318 9.49876 9247 ft 252 kts 258°
2026-05-06 11:27 50.24030 9.47173 8956 ft 251 kts 258°
2026-05-06 11:27 50.23746 9.44487 8668 ft 250 kts 257°
2026-05-06 11:28 50.23328 9.41857 8404 ft 248 kts 251°
2026-05-06 11:28 50.22835 9.39284 8124 ft 247 kts 253°
2026-05-06 11:28 50.22406 9.36694 7843 ft 245 kts 253°
2026-05-06 11:28 50.21950 9.34137 7589 ft 244 kts 252°
2026-05-06 11:29 50.21457 9.31608 7309 ft 242 kts 251°
2026-05-06 11:29 50.20937 9.29108 7048 ft 242 kts 250°
2026-05-06 11:29 50.20395 9.26626 6788 ft 241 kts 249°
2026-05-06 11:29 50.19838 9.24166 6521 ft 240 kts 249°
2026-05-06 11:30 50.19262 9.21691 6280 ft 239 kts 248°
2026-05-06 11:30 50.18680 9.19252 6001 ft 239 kts 248°
2026-05-06 11:30 50.18090 9.16817 5719 ft 240 kts 248°
2026-05-06 11:30 50.17497 9.14393 5438 ft 239 kts 247°
2026-05-06 11:31 50.16899 9.11973 5194 ft 238 kts 248°
2026-05-06 11:31 50.16303 9.09561 4919 ft 238 kts 248°
2026-05-06 11:31 50.15702 9.07128 4653 ft 238 kts 248°
2026-05-06 11:31 50.15108 9.04720 4386 ft 237 kts 248°
2026-05-06 11:32 50.14519 9.02314 4124 ft 237 kts 247°
2026-05-06 11:32 50.13918 8.99861 4001 ft 242 kts 248°
2026-05-06 11:32 50.13335 8.97470 3985 ft 228 kts 248°
2026-05-06 11:32 50.12787 8.95208 3986 ft 220 kts 248°
2026-05-06 11:33 50.12247 8.92985 3992 ft 221 kts 248°
2026-05-06 11:33 50.11703 8.90739 3996 ft 221 kts 248°
2026-05-06 11:33 50.11163 8.88507 3997 ft 220 kts 247°
2026-05-06 11:33 50.10631 8.86298 3982 ft 216 kts 248°
2026-05-06 11:34 50.10102 8.84106 3799 ft 216 kts 247°
2026-05-06 11:34 50.09572 8.81906 3507 ft 217 kts 248°
2026-05-06 11:34 50.09043 8.79710 3216 ft 218 kts 248°
2026-05-06 11:34 50.08526 8.77560 2919 ft 217 kts 248°
2026-05-06 11:35 50.08007 8.75393 2637 ft 214 kts 247°
2026-05-06 11:35 50.07513 8.73264 2415 ft 201 kts 250°
2026-05-06 11:35 50.07254 8.71246 2375 ft 183 kts 259°
2026-05-06 11:35 50.07069 8.69344 2065 ft 174 kts 253°
2026-05-06 11:36 50.06704 8.67567 1643 ft 168 kts 246°
2026-05-06 11:36 50.06272 8.65915 1306 ft 160 kts 245°
2026-05-06 11:36 50.05856 8.64344 1078 ft 155 kts 246°
2026-05-06 11:36 50.05477 8.62763 1006 ft 156 kts 247°
2026-05-06 11:37 50.05106 8.61177 823 ft 155 kts 247°
2026-05-06 11:37 50.04732 8.59614 575 ft 154 kts 248°
2026-05-06 11:37 50.04376 8.58106 387 ft 143 kts 245°
2026-05-06 11:37 50.04056 8.56788 369 ft 116 kts 249°
2026-05-06 11:38 50.03844 8.55891 359 ft 57 kts 249°
2026-05-06 11:38 50.03769 8.55585 359 ft 13 kts 249°
2026-05-06 11:38 50.03732 8.55426 362 ft 18 kts 250°
2026-05-06 11:38 50.03688 8.55223 358 ft 21 kts 257°
2026-05-06 11:39 50.03692 8.55021 358 ft 7 kts 280°
2026-05-06 11:39 50.03703 8.54929 353 ft 10 kts 281°
2026-05-06 11:39 50.03742 8.54845 357 ft 9 kts 349°
2026-05-06 11:39 50.03790 8.54901 361 ft 10 kts 54°
2026-05-06 11:40 50.03822 8.55006 363 ft 12 kts 68°
2026-05-06 11:40 50.03855 8.55141 363 ft 15 kts 70°
2026-05-06 11:40 50.03880 8.55246 366 ft 5 kts 69°
2026-05-06 11:40 50.03899 8.55322 363 ft 11 kts 69°
2026-05-06 11:41 50.03940 8.55493 364 ft 19 kts 70°
2026-05-06 11:41 50.03977 8.55649 362 ft 16 kts 70°
2026-05-06 11:41 50.04013 8.55802 364 ft 15 kts 70°
2026-05-06 11:41 50.04049 8.55935 363 ft 9 kts 53°
2026-05-06 11:42 50.04113 8.55959 366 ft 12 kts 345°
2026-05-06 11:42 50.04171 8.55927 364 ft 12 kts 341°
2026-05-06 11:42 50.04270 8.55955 369 ft 13 kts
2026-05-06 11:42 50.04329 8.55936 367 ft 7 kts 343°
2026-05-06 11:43 50.04383 8.55913 366 ft 9 kts 348°
2026-05-06 11:43 50.04449 8.55919 369 ft 11 kts 14°
2026-05-06 11:43 50.04529 8.55961 368 ft 13 kts 32°
2026-05-06 11:44 50.04606 8.56181 368 ft 8 kts 65°
2026-05-06 11:44 50.04621 8.56200 370 ft 6 kts
2026-05-06 11:44 50.04664 8.56180 368 ft 2 kts 340°
2026-05-06 11:44 50.04679 8.56172 371 ft 3 kts 340°
2026-05-06 11:45 50.04692 8.56164 368 ft 0 kts 340°
2026-05-06 11:45 50.04694 8.56163 368 ft 0 kts 340°